x

Port Sanilac, Mi (pscm4) Weather Station

5:50am - Wed 30th Jul 2014 All times are CDT. -5 hours from GMT.

  • Wind
    7mph, 10mph gusts
  • Air Temp 57°f
  • Sea Pressure 1014.6mb
  • Port Sanilac, Mi
  • Port Sanilac, Mi

More Historic Weather Station data

Upgrade to MSW Pro to gain access to the past 30 days of data for over 8000 Wavebouys and Weather Stations around the globe.

Join Pro

Comparision Forecast

View Surf forecast
   
Wed 07/30 5:50am 7 10 mph 1014.6mb 57f
5:40am 8 10 mph 1014.2mb 57f
5:30am 7 11 mph 1014.2mb 57f
5:20am 8 10 mph 1014.2mb 57f
5:10am 7 9 mph 1014.2mb 57f
5:00am 8 11 mph 1014.2mb 58f
4:50am 7 9 mph 1013.9mb 57f
4:40am 8 10 mph 1013.9mb 57f
4:30am 8 10 mph 1013.9mb 57f
4:20am 8 11 mph 1013.9mb 57f
4:10am 8 10 mph 1013.5mb 57f
4:00am 8 10 mph 1013.5mb 57f
3:50am 7 9 mph 1013.5mb 58f
3:40am 7 9 mph 1013.5mb 58f
3:30am 7 10 mph 1013.9mb 58f
3:20am 8 11 mph 1013.5mb 58f
3:10am 7 13 mph 1013.5mb 58f
3:00am 8 13 mph 1013.5mb 58f
2:50am 8 11 mph 1013.5mb 57f
2:40am 9 13 mph 1013.5mb 57f
2:30am 9 11 mph 1013.5mb 57f
2:20am 8 10 mph 1013.5mb 57f
2:10am 9 11 mph 1013.9mb 57f
2:00am 7 10 mph 1013.9mb 57f
1:50am 8 11 mph 1013.9mb 58f
1:40am 9 10 mph 1013.5mb 58f
1:30am 8 10 mph 1013.5mb 58f
1:20am 8 10 mph 1013.5mb 59f
1:10am 9 14 mph 1013.5mb 59f
1:00am 8 11 mph 1013.5mb 59f
12:50am 7 13 mph 1013.5mb 59f
12:40am 8 11 mph 1013.5mb 59f
12:30am 8 10 mph 1013.5mb 59f
12:20am 7 10 mph 1013.9mb 59f
12:10am 7 11 mph 1013.9mb 59f
12:00am 9 13 mph 1013.9mb 59f
Tue 07/29 11:50pm 8 11 mph 1013.9mb 59f
11:40pm 7 10 mph 1013.9mb 60f
11:30pm 8 11 mph 1013.9mb 60f
11:20pm 8 11 mph 1013.9mb 60f
11:10pm 8 10 mph 1013.5mb 60f
11:00pm 7 10 mph 1013.9mb 60f
10:50pm 7 13 mph 1013.9mb 61f
10:40pm 9 13 mph 1013.9mb 61f
10:30pm 8 13 mph 1013.9mb 61f
10:20pm 7 10 mph 1013.9mb 62f
10:10pm 8 13 mph 1013.5mb 62f
10:00pm 8 13 mph 1013.9mb 62f
9:50pm 8 11 mph 1013.5mb 62f
9:40pm 8 13 mph 1013.5mb 62f
9:30pm 8 13 mph 1013.5mb 62f
9:20pm 6 9 mph 1013.5mb 62f
9:10pm 8 9 mph 1013.5mb 63f
9:00pm 6 8 mph 1013.5mb 63f
8:50pm 5 9 mph 1013.5mb 63f
8:40pm 6 8 mph 1013.5mb 63f
8:30pm 5 9 mph 1013.5mb 64f
8:20pm 3 8 mph 1013.5mb 64f
8:10pm 6 9 mph 1013.5mb 64f
8:00pm 5 7 mph 1013.5mb 65f
7:50pm 5 7 mph 1013.5mb 65f
7:40pm 6 9 mph 1013.5mb 66f
7:30pm 7 9 mph 1013.5mb 66f
7:20pm 6 9 mph 1013.5mb 67f
7:10pm 5 8 mph 1013.5mb 68f
7:00pm 3 7 mph 1013.5mb 68f
6:50pm 5 9 mph 1013.5mb 68f
6:40pm 5 7 mph 1013.5mb 68f
6:30pm 5 9 mph 1013.2mb 68f
6:20pm 6 9 mph 1013.2mb 69f
6:10pm 6 11 mph 1013.2mb 69f
6:00pm 7 11 mph 1013.2mb 69f
5:50pm 8 10 mph 1013.2mb 69f
5:40pm 8 13 mph 1013.2mb 70f
5:30pm 8 11 mph 1013.2mb 71f
5:20pm 8 10 mph 1013.2mb 71f
5:10pm 7 11 mph 1013.2mb 71f
5:00pm 6 9 mph 1013.2mb 71f
4:50pm 6 10 mph 1013.2mb 70f
4:40pm 6 10 mph 1013.2mb 70f
4:30pm 8 13 mph 1013.2mb 70f
4:20pm 8 15 mph 1013.2mb 70f
4:10pm 11 15 mph 1013.2mb 70f
4:00pm 8 14 mph 1013.2mb 70f
3:50pm 9 15 mph 1013.2mb 70f
3:40pm 10 15 mph 1013.2mb 69f
3:30pm 6 14 mph 1013.2mb 69f
3:20pm 9 14 mph 1013.2mb 69f
3:10pm 5 7 mph 1013.2mb 68f
3:00pm 6 8 mph 1013.5mb 68f
2:50pm 8 11 mph 1013.5mb 67f
2:40pm 7 10 mph 1013.9mb 67f
2:30pm 6 14 mph 1013.9mb 67f
2:20pm 7 15 mph 1013.9mb 67f
2:10pm 9 13 mph 1013.9mb 67f
2:00pm 8 15 mph 1013.9mb 65f
1:50pm 8 15 mph 1013.9mb 65f
1:40pm 8 11 mph 1013.9mb 64f
1:30pm 9 15 mph 1013.9mb 64f
1:20pm 9 13 mph 1014.2mb 65f
1:10pm 7 9 mph 1014.2mb 64f
1:00pm 8 13 mph 1014.2mb 64f
12:50pm 9 15 mph 1014.2mb 64f
12:40pm 7 13 mph 1014.2mb 65f
12:30pm 8 10 mph 1014.2mb 65f
12:20pm 8 10 mph 1014.2mb 65f
12:10pm 7 10 mph 1014.6mb 65f
12:00pm 8 13 mph 1014.6mb 65f
11:50am 9 13 mph 1014.6mb 64f
11:40am 7 11 mph 1014.6mb 64f
11:30am 8 13 mph 1014.6mb 64f
11:20am 7 11 mph 1014.6mb 63f
11:10am 8 10 mph 1014.6mb 62f
11:00am 5 8 mph 1014.6mb 62f
10:50am 6 9 mph 1014.6mb 62f
10:40am 6 10 mph 1014.6mb 62f
10:30am 6 11 mph 1014.6mb 61f
10:20am 8 10 mph 1014.6mb 61f
10:10am 5 11 mph 1014.6mb 62f
10:00am 9 13 mph 1014.9mb 61f
9:50am 7 13 mph 1014.6mb 62f
9:40am 7 11 mph 1014.9mb 63f
9:30am 6 10 mph 1014.9mb 63f
9:20am 6 11 mph 1014.6mb 62f
9:10am 8 13 mph 1014.6mb 62f
9:00am 6 11 mph 1014.6mb 61f
8:50am 8 11 mph 1014.9mb 60f
8:40am 7 11 mph 1014.9mb 60f
8:30am 7 11 mph 1014.9mb 59f
8:20am 7 13 mph 1014.6mb 59f
8:10am 11 15 mph 1014.6mb 58f
8:00am 10 16 mph 1014.9mb 58f
7:50am 8 13 mph 1014.6mb 58f
7:40am 9 13 mph 1014.6mb 57f
7:30am 8 11 mph 1014.6mb 57f
7:20am 8 11 mph 1014.6mb 56f
7:10am 7 10 mph 1014.6mb 55f
7:00am 8 13 mph 1014.6mb 54f
6:50am 9 15 mph 1014.6mb 54f
6:40am 10 14 mph 1014.6mb 53f
6:30am 9 11 mph 1014.6mb 53f
6:20am 9 13 mph 1014.6mb 53f
6:10am 8 11 mph 1014.6mb 52f
6:00am 9 13 mph 1014.6mb 52f
5:50am 9 14 mph 1014.6mb 52f
5:40am 8 11 mph 1014.6mb 52f
5:30am 8 11 mph 1014.6mb 52f
5:20am 8 13 mph 1014.6mb 52f
5:10am 9 11 mph 1014.2mb 52f
5:00am 9 14 mph 1014.2mb 52f
4:50am 9 13 mph 1014.2mb 52f
4:40am 9 13 mph 1014.2mb 52f
4:30am 9 13 mph 1014.2mb 52f
4:20am 9 11 mph 1014.2mb 52f
4:10am 8 13 mph 1014.2mb 52f
4:00am 9 13 mph 1014.2mb 53f
3:50am 8 11 mph 1014.2mb 53f
3:40am 9 13 mph 1014.2mb 53f
3:30am 8 11 mph 1014.2mb 53f
3:20am 7 13 mph 1014.6mb 53f
3:10am 8 11 mph 1014.2mb 54f
3:00am 7 11 mph 1014.2mb 54f
2:50am 7 11 mph 1014.2mb 54f
2:40am 7 11 mph 1014.2mb 54f
2:30am 8 10 mph 1014.6mb 54f
2:20am 7 11 mph 1014.6mb 54f
2:10am 8 10 mph 1014.2mb 55f
2:00am 7 10 mph 1014.2mb 55f
1:50am 7 9 mph 1014.2mb 56f
1:40am 6 8 mph 1014.2mb 56f
1:30am 6 10 mph 1014.6mb 56f
1:20am 6 9 mph 1014.6mb 57f
1:10am 7 9 mph 1014.6mb 57f
1:00am 7 11 mph 1014.6mb 57f
12:50am 8 13 mph 1014.6mb 56f
12:40am 8 10 mph 1014.6mb 56f
12:30am 7 10 mph 1014.6mb 56f
12:20am 8 10 mph 1014.6mb 56f
12:10am 7 10 mph 1014.6mb 56f
12:00am 8 11 mph 1014.6mb 56f
Mon 07/28 11:50pm 8 10 mph 1014.6mb 56f
11:40pm 7 11 mph 1014.6mb 56f
11:30pm 7 11 mph 1014.6mb 56f
11:20pm 7 10 mph 1014.9mb 56f
11:10pm 7 10 mph 1014.9mb 56f
11:00pm 7 9 mph 1014.9mb 56f
10:50pm 7 9 mph 1014.9mb 57f
10:40pm 6 10 mph 1014.9mb 57f
10:30pm 6 9 mph 1014.9mb 57f
10:20pm 7 9 mph 1015.2mb 57f
10:10pm 7 11 mph 1015.2mb 57f
10:00pm 7 10 mph 1015.2mb 57f
9:50pm 7 9 mph 1015.2mb 57f
9:40pm 7 9 mph 1015.2mb 57f
9:30pm 6 9 mph 1015.2mb 58f
9:20pm 7 10 mph 1015.2mb 58f
9:10pm 6 10 mph 1015.2mb 58f
9:00pm 7 13 mph 1014.9mb 58f
8:50pm 6 10 mph 1014.9mb 58f
8:40pm 5 9 mph 1014.9mb 58f
8:30pm 5 8 mph 1014.9mb 58f
8:20pm 6 9 mph 1014.9mb 58f
8:10pm 7 9 mph 1014.6mb 58f
8:00pm 7 8 mph 1014.9mb 59f
7:50pm 6 9 mph 1014.6mb 59f
7:40pm 6 11 mph 1014.9mb 59f
7:30pm 7 11 mph 1014.9mb 59f
7:20pm 8 14 mph 1014.9mb 59f
7:10pm 8 10 mph 1014.9mb 60f
7:00pm 7 9 mph 1014.9mb 60f
6:50pm 8 15 mph 1014.9mb 60f
6:40pm 8 15 mph 1014.9mb 60f
6:30pm 11 15 mph 1014.9mb 60f
6:20pm 10 14 mph 1014.9mb 59f
6:10pm 11 15 mph 1014.9mb 60f
6:00pm 14 20 mph 1014.6mb 60f
5:50pm 13 18 mph 1014.6mb 60f
5:40pm 10 14 mph 1014.9mb 60f
5:30pm 10 15 mph 1014.9mb 59f
5:20pm 9 16 mph 1014.9mb 59f
5:10pm 14 21 mph 1014.9mb 60f
5:00pm 14 20 mph 1014.6mb 60f
4:50pm 16 26 mph 1014.6mb 59f
4:40pm 20 26 mph 1014.6mb 60f
4:30pm 20 23 mph 1014.6mb 60f
4:20pm 21 26 mph 1014.6mb 59f
4:10pm 23 26 mph 1014.2mb 60f
4:00pm 22 28 mph 1014.6mb 59f
3:50pm 23 26 mph 1014.6mb 60f
3:40pm 16 24 mph 1014.6mb 60f
3:30pm 20 29 mph 1014.2mb 59f
3:20pm 26 32 mph 1014.2mb 59f
3:10pm 24 31 mph 1014.2mb 59f
3:00pm 25 31 mph 1013.9mb 59f
2:50pm 26 31 mph 1013.9mb 59f
2:40pm 26 31 mph 1013.5mb 59f
2:30pm 24 32 mph 1013.9mb 59f
2:20pm 25 31 mph 1013.9mb 59f
2:10pm 26 32 mph 1013.5mb 59f
2:00pm 25 31 mph 1013.5mb 59f
1:50pm 26 30 mph 1013.5mb 59f
1:40pm 24 30 mph 1013.5mb 59f
1:30pm 25 29 mph 1013.5mb 59f
1:20pm 23 28 mph 1013.5mb 59f
1:10pm 22 28 mph 1013.5mb 59f
1:00pm 24 31 mph 1013.5mb 58f
12:50pm 23 28 mph 1013.5mb 58f
12:40pm 23 29 mph 1013.2mb 59f
12:30pm 22 31 mph 1013.5mb 59f
12:20pm 25 31 mph 1013.2mb 59f
12:10pm 24 30 mph 1013.2mb 60f
12:00pm 24 30 mph 1013.2mb 59f
11:50am 25 31 mph 1013.2mb 59f
11:40am 26 33 mph 1012.9mb 59f
11:30am 28 33 mph 1012.9mb 59f
11:20am 28 32 mph 1012.9mb 59f
11:10am 25 37 mph 1012.9mb 59f
11:00am 29 34 mph 1012.5mb 59f
10:50am 29 33 mph 1012.5mb 59f
10:40am 28 33 mph 1012.5mb 59f
10:30am 28 32 mph 1012.2mb 59f
10:20am 28 32 mph 1011.9mb 59f
10:10am 28 33 mph 1011.9mb 60f
10:00am 29 33 mph 1011.9mb 60f
9:50am 28 33 mph 1011.5mb 60f
9:40am 29 33 mph 1011.5mb 60f
9:30am 28 32 mph 1011.2mb 60f
9:20am 25 31 mph 1011.2mb 60f
9:10am 26 32 mph 1011.2mb 60f
9:00am 25 30 mph 1010.8mb 61f
8:50am 28 31 mph 1010.8mb 61f
8:40am 26 31 mph 1010.8mb 61f
8:30am 28 33 mph 1010.5mb 61f
8:20am 25 31 mph 1010.5mb 61f
8:10am 26 31 mph 1010.5mb 61f
8:00am 26 33 mph 1010.2mb 61f
7:50am 26 31 mph 1010.2mb 61f
7:40am 25 32 mph 1010.2mb 61f
7:30am 26 34 mph 1009.8mb 61f
7:20am 30 34 mph 1009.5mb 61f
7:10am 28 33 mph 1009.5mb 62f
7:00am 29 34 mph 1009.1mb 62f
6:50am 28 34 mph 1009.1mb 62f
6:40am 31 36 mph 1009.1mb 62f
6:30am 32 37 mph 1008.8mb 62f
6:20am 31 36 mph 1008.8mb 62f
6:10am 31 37 mph 1008.8mb 62f
6:00am 29 34 mph 1008.8mb 62f
5:50am 30 37 mph 1008.5mb 62f
5:40am 32 37 mph 1008.5mb 62f
5:30am 32 39 mph 1008.1mb 62f
5:20am 33 38 mph 1008.1mb 62f
5:10am 32 40 mph 1007.8mb 63f
5:00am 32 39 mph 1007.1mb 63f
4:50am 33 39 mph 1007.1mb 63f
4:40am 29 40 mph 1007.1mb 63f
4:30am 31 41 mph 1006.8mb 63f
4:20am 29 38 mph 1007.1mb 64f
4:10am 33 38 mph 1006.4mb 64f
4:00am 32 39 mph 1006.4mb 64f
3:50am 30 34 mph 1006.4mb 64f
3:40am 29 38 mph 1006.1mb 63f
3:30am 30 41 mph 1006.1mb 63f
3:20am 33 41 mph 1005.8mb 63f
3:10am 34 40 mph 1005.8mb 63f
3:00am 34 39 mph 1005.8mb 63f
2:50am 31 34 mph 1005.8mb 64f
2:40am 26 34 mph 1005.8mb 64f
2:30am 29 33 mph 1005.1mb 64f
2:20am 28 33 mph 1005.1mb 64f
2:10am 26 30 mph 1005.1mb 64f
2:00am 24 31 mph 1005.1mb 64f
1:50am 25 34 mph 1005.1mb 64f
1:40am 30 34 mph 1004.7mb 64f
1:30am 28 32 mph 1004.7mb 64f
1:20am 25 28 mph 1004.7mb 64f
1:10am 18 25 mph 1005.1mb 64f
1:00am 13 20 mph 1004.7mb 63f
12:50am 11 15 mph 1005.1mb 63f
12:40am 11 16 mph 1004.7mb 63f
12:30am 8 14 mph 1004.7mb 63f
12:20am 9 13 mph 1005.1mb 63f
12:10am 8 13 mph 1005.1mb 63f
12:00am 8 13 mph 1005.1mb 63f
Sun 07/27 11:50pm 8 11 mph 1005.1mb 63f
11:40pm 8 11 mph 1005.4mb 63f
11:30pm 9 14 mph 1005.4mb 63f
11:20pm 8 13 mph 1005.4mb 63f
11:10pm 8 10 mph 1005.4mb 63f
11:00pm 7 10 mph 1005.4mb 63f
10:50pm 8 13 mph 1005.4mb 63f
10:40pm 7 11 mph 1005.4mb 64f
10:30pm 8 11 mph 1005.4mb 64f
10:20pm 8 13 mph 1005.4mb 64f
10:10pm 10 21 mph 1005.1mb 64f
10:00pm 18 21 mph 1005.1mb 65f
9:50pm 18 22 mph 1005.1mb 65f
9:40pm 17 20 mph 1005.1mb 65f
9:30pm 8 11 mph 1005.1mb 64f
9:20pm 7 9 mph 1005.1mb 63f
9:10pm 5 11 mph 1005.1mb 64f
9:00pm 9 14 mph 1005.1mb 64f
8:50pm 10 13 mph 1005.1mb 64f
8:40pm 3 6 mph 1005.1mb 65f
8:30pm 7 10 mph 1004.4mb 65f
8:20pm 10 15 mph 1003.7mb 65f
8:10pm 13 15 mph 1003.7mb 64f
8:00pm 11 14 mph 1004.1mb 65f
7:50pm 14 15 mph 1004.4mb 65f
7:40pm 11 13 mph 1004.4mb 65f
7:30pm 6 7 mph 1004.1mb 65f
7:20pm 6 9 mph 1003.7mb 65f
7:10pm 8 11 mph 1004.1mb 64f
7:00pm 10 15 mph 1004.4mb 64f
6:50pm 14 22 mph 1004.4mb 64f
6:40pm 20 26 mph 1004.4mb 63f
6:30pm 23 26 mph 1004.1mb 63f
6:20pm 21 30 mph 1004.1mb 62f
6:10pm 21 26 mph 1004.4mb 62f
6:00pm 24 32 mph 1004.7mb 62f
5:50pm 24 28 mph 1004.7mb 62f
5:40pm 18 25 mph 1005.4mb 62f
5:30pm 20 28 mph 1005.1mb 63f
5:20pm 17 26 mph 1004.7mb 63f
5:10pm 25 32 mph 1004.4mb 63f
5:00pm 18 46 mph 1005.4mb 62f
4:50pm 18 30 mph 1003.7mb 64f
4:40pm 9
mph
1002mb 70f
4:30pm 7 8 mph 1002.4mb 70f
4:20pm  -  3 mph 1002.7mb 71f
4:10pm 2 6 mph 1002.7mb 72f
4:00pm 3 6 mph 1002.7mb 72f
3:50pm 5 8 mph 1003mb 72f
3:40pm  -  6 mph 1002.7mb 72f
3:30pm 6 10 mph 1003mb 70f
3:20pm 9 10 mph 1002.7mb 70f
3:10pm 5 6 mph 1003mb 70f
3:00pm 3 11 mph 1003.7mb 71f
2:50pm 10 11 mph 1003.4mb 70f
2:40pm 8
mph
1003.7mb 71f
2:30pm 5 9 mph 1004.1mb 72f
2:20pm 9 14 mph 1004.4mb 72f
2:10pm 8 10 mph 1004.4mb 74f
2:00pm 8 11 mph 1004.1mb 73f
1:50pm 10 11 mph 1004.4mb 76f
1:00pm 11 16 mph 1005.1mb 75f
12:50pm 13 17 mph 1005.1mb 75f
12:40pm 13 16 mph 1005.4mb 75f
12:30pm 11 18 mph 1005.8mb 75f
12:20pm 14 20 mph 1006.4mb 76f
12:10pm 7 14 mph 1006.4mb 75f
12:00pm 6 13 mph 1006.4mb 71f
11:50am 6 7 mph 1006.4mb 69f
11:40am 6 7 mph 1006.4mb 70f
11:30am 6 8 mph 1006.4mb 69f
11:20am 5 10 mph 1006.4mb 69f
11:10am 9 10 mph 1006.4mb 68f
11:00am 1 3 mph 1007.1mb 70f
10:50am 1 7 mph 1007.5mb 69f
10:40am 8 9 mph 1007.1mb 68f
10:30am 9 10 mph 1007.1mb 68f
10:20am 10
mph
1007.1mb 68f
10:10am 9 10 mph 1007.1mb 68f
10:00am 10 11 mph 1007.1mb 68f
9:50am 11 13 mph 1007.1mb 68f
9:40am 10 13 mph 1007.1mb 68f
9:30am 11
mph
1006.8mb 68f
9:20am 10 11 mph 1006.8mb 68f
9:10am 9 10 mph 1006.4mb 68f
9:00am 9 11 mph 1006.4mb 68f
8:50am 8 9 mph 1006.4mb 68f
8:40am 6 7 mph 1006.4mb 69f
8:30am 5
mph
1006.4mb 71f
8:20am 5 8 mph 1006.4mb 71f
8:10am 6 8 mph 1006.4mb 70f
8:00am 2 7 mph 1006.4mb 70f
7:50am 5 8 mph 1006.4mb 69f
7:40am 5 8 mph 1006.4mb 69f
7:30am 6 8 mph 1006.4mb 69f
7:20am 6 7 mph 1006.4mb 69f
7:10am 6 9 mph 1006.8mb 68f
7:00am 7 11 mph 1006.4mb 67f
6:50am 7 10 mph 1006.4mb 67f
6:40am 6 10 mph 1006.4mb 66f
6:30am 7 10 mph 1006.4mb 66f
6:20am 7 10 mph 1006.4mb 66f
6:10am 7 9 mph 1006.4mb 65f
6:00am 6 8 mph 1006.8mb 65f
5:50am 6 8 mph 1007.1mb 65f
5:40am 7 9 mph 1007.1mb 65f
5:30am 7 9 mph 1007.1mb 65f
5:20am 6 8 mph 1007.1mb 65f
5:10am 6 9 mph 1007.1mb 65f
5:00am 6 8 mph 1007.1mb 65f
4:50am 5 8 mph 1007.5mb 65f
4:40am 5 9 mph 1007.5mb 66f
4:30am 7 9 mph 1007.5mb 66f
4:20am 5 8 mph 1007.8mb 66f
4:10am 6 9 mph 1007.8mb 66f
4:00am 6 10 mph 1007.8mb 66f
3:50am 7 13 mph 1007.8mb 67f
3:40am 6 9 mph 1007.8mb 67f
3:30am 7 13 mph 1007.8mb 67f
3:20am 8 11 mph 1007.8mb 68f
3:10am 8 14 mph 1007.8mb 68f
3:00am 8 13 mph 1007.8mb 68f
2:50am 7 11 mph 1007.8mb 68f
2:40am 8 14 mph 1007.5mb 68f
2:30am 8 14 mph 1007.5mb 68f
2:20am 7 14 mph 1007.5mb 68f
2:10am 7 13 mph 1007.5mb 69f
2:00am 7 15 mph 1007.5mb 69f
1:50am 9 15 mph 1007.1mb 69f
1:40am 10 17 mph 1007.1mb 69f
1:30am 11 17 mph 1007.1mb 70f
1:20am 10 16 mph 1007.1mb 70f
1:10am 11 17 mph 1007.1mb 70f
1:00am 10 17 mph 1007.1mb 71f
12:50am 10 17 mph 1007.1mb 71f
12:40am 8 13 mph 1007.1mb 71f
12:30am 8 11 mph 1007.1mb 71f
12:20am 7 9 mph 1007.5mb 71f
12:10am 7 13 mph 1007.5mb 71f
12:00am 6 10 mph 1007.5mb 71f
Sat 07/26 11:50pm 7 10 mph 1007.5mb 71f
11:40pm 6 11 mph 1007.5mb 71f
11:30pm 8 11 mph 1007.5mb 71f
11:20pm 6 11 mph 1007.5mb 71f
11:10pm 7 11 mph 1007.5mb 71f
11:00pm 6 9 mph 1007.8mb 71f
10:50pm 5 8 mph 1007.8mb 71f
10:40pm 3 7 mph 1007.8mb 72f
10:30pm 3 7 mph 1007.8mb 72f
10:20pm 6 8 mph 1007.5mb 73f
10:10pm 5 8 mph 1007.5mb 73f
10:00pm 6 13 mph 1007.5mb 74f
9:50pm 8 11 mph 1007.1mb 74f
9:40pm 7 11 mph 1007.5mb 74f
9:30pm 7 13 mph 1007.5mb 74f
9:20pm 8 13 mph 1007.8mb 75f
9:10pm 7 11 mph 1008.1mb 74f
9:00pm 5 9 mph 1008.1mb 74f
8:50pm 3 7 mph 1008.1mb 74f
8:40pm 3 7 mph 1008.1mb 74f
8:30pm 3 7 mph 1008.1mb 74f
8:20pm 5 8 mph 1007.8mb 74f
8:10pm 6 9 mph 1007.8mb 75f
8:00pm 7 9 mph 1007.5mb 75f
7:50pm 8 10 mph 1007.5mb 75f
7:40pm 9 10 mph 1007.5mb 74f
7:30pm 8 10 mph 1007.8mb 75f
7:20pm 8 10 mph 1007.8mb 74f
7:10pm 9 10 mph 1007.8mb 71f
7:00pm 8 10 mph 1007.8mb 71f
6:50pm 9 11 mph 1007.8mb 76f
6:40pm 8 9 mph 1007.8mb 76f
6:30pm 8 11 mph 1008.1mb 77f
6:20pm 9 11 mph 1008.1mb 78f
6:10pm 8 13 mph 1008.5mb 77f
6:00pm 9 11 mph 1008.1mb 74f
5:50pm 9 13 mph 1008.1mb 73f
5:40pm 10 11 mph 1008.1mb 71f
5:30pm 10 11 mph 1008.1mb 70f
5:20pm 10 11 mph 1008.5mb 71f
5:10pm 10 14 mph 1008.1mb 71f
5:00pm 10 14 mph 1008.5mb 78f
4:50pm 13 14 mph 1008.5mb 78f
4:40pm 11 17 mph 1008.5mb 78f
4:30pm 13 15 mph 1008.5mb 79f
4:20pm 9 14 mph 1008.5mb 73f
4:10pm 9 14 mph 1008.8mb 71f
4:00pm 10 13 mph 1008.8mb 70f
3:50pm 9 11 mph 1009.1mb 70f
3:40pm 10 11 mph 1009.1mb 70f
3:30pm 9 13 mph 1009.1mb 70f
3:20pm 11 13 mph 1009.1mb 70f
3:10pm 10 11 mph 1009.5mb 70f
3:00pm 6 13 mph 1009.5mb 70f
2:50pm 10 14 mph 1009.8mb 70f
2:40pm 9 16 mph 1009.5mb 70f
2:30pm 11 18 mph 1009.8mb 69f
2:20pm 10 16 mph 1009.8mb 69f
2:10pm 11 17 mph 1009.8mb 69f
2:00pm 16 17 mph 1009.8mb 69f
1:50pm 15 17 mph 1010.2mb 69f
1:40pm 10 13 mph 1010.2mb 68f
1:30pm 9 11 mph 1010.5mb 68f
1:20pm 11 13 mph 1010.5mb 68f
1:10pm 10 14 mph 1010.5mb 68f
1:00pm 14 18 mph 1010.5mb 68f
12:50pm 15 17 mph 1010.2mb 68f
12:40pm 13
mph
1010.5mb 69f
12:30pm 7 11 mph 1011.2mb 75f
12:20pm 2 7 mph 1011.5mb 74f
12:10pm 7 10 mph 1011.5mb 73f
12:00pm 5 8 mph 1011.9mb 73f
11:50am 6 15 mph 1011.9mb 72f